Location: Unspecified
(0.0000°N, 0.0000°E)
Time: 07:18:08
(UTC+00:00)

Vanguard 3 - All Passes

Search period start: 26 September 2017 00:00
Search period end: 06 October 2017 00:00
Orbit: 510 x 3263 km, 33.3° (Epoch: 25 September)

Date Brightness Start Highest point End Pass type
(mag) Time Alt. Az. Time Alt. Az. Time Alt. Az.
26 Sep - 02:11:08 10° SSW 02:14:40 11° SSW 02:17:54 10° S visible
26 Sep - 04:32:46 10° S 04:33:44 10° S 04:34:39 10° SSE visible
26 Sep - 06:43:04 10° SSW 06:48:55 28° SSE 06:52:55 10° E daylight
26 Sep - 08:56:47 10° W 09:00:42 28° NW 09:03:56 10° NNE daylight
26 Sep - 17:50:23 10° NNW 18:01:44 43° NE 18:18:45 10° ESE visible
26 Sep - 20:02:13 10° WNW 20:17:46 81° SW 20:38:07 10° SE visible
26 Sep - 22:19:26 10° W 22:36:09 37° SSW 22:52:46 10° SSE visible
27 Sep - 00:46:25 10° SW 00:56:35 16° SSW 01:05:16 10° SSE visible
27 Sep - 03:16:16 10° S 03:17:16 10° S 03:18:13 10° S visible
27 Sep - 05:28:33 10° SSW 05:34:19 18° SSE 05:38:30 10° ESE visible
27 Sep - 07:41:34 10° SW 07:47:36 90° N 07:51:34 10° NE daylight
27 Sep - 16:38:11 10° NNW 16:46:23 24° NE 16:58:05 10° E daylight
27 Sep - 18:48:00 10° NW 19:01:14 73° NE 19:20:59 10° ESE visible
27 Sep - 21:02:11 10° WNW 21:18:29 52° SSW 21:37:34 10° SE visible
27 Sep - 23:23:59 10° WSW 23:38:14 24° SSW 23:51:13 10° SSE visible
28 Sep - 01:54:19 10° SSW 01:59:43 12° S 02:04:27 10° SSE visible
28 Sep - 04:13:26 10° SSW 04:18:52 14° SSE 04:23:08 10° SE visible
28 Sep - 06:26:36 10° SW 06:33:55 41° SSE 06:38:26 10° E daylight
28 Sep - 08:41:49 10° W 08:45:27 21° NW 08:48:26 10° N daylight
28 Sep - 15:29:09 10° NNE 15:31:14 11° NE 15:33:31 10° NE daylight
28 Sep - 17:34:49 10° NNW 17:45:32 47° NE 18:02:29 10° ESE daylight
28 Sep - 19:46:42 10° WNW 20:01:17 72° SW 20:21:27 10° SE visible
28 Sep - 22:04:14 10° W 22:20:01 33° SSW 22:36:25 10° SSE visible
29 Sep - 00:31:13 10° SW 00:41:19 16° SSW 00:50:05 10° SSE visible
29 Sep - 02:56:47 10° SSW 03:02:22 13° S 03:07:00 10° SSE visible
29 Sep - 05:11:27 10° SSW 05:19:22 26° SSE 05:24:31 10° ESE visible
29 Sep - 07:25:47 10° WSW 07:32:23 64° NW 07:36:34 10° NE daylight
29 Sep - 16:22:38 10° NNW 16:30:33 27° NE 16:42:20 10° E daylight
29 Sep - 18:32:30 10° NW 18:44:51 82° NE 19:04:21 10° ESE visible
29 Sep - 20:46:52 10° W 21:02:10 46° SSW 21:20:56 10° SE visible
29 Sep - 23:09:03 10° WSW 23:22:34 22° SSW 23:35:17 10° SSE visible
30 Sep - 01:37:29 10° SSW 01:44:44 14° S 01:50:52 10° SSE visible
30 Sep - 03:55:45 10° SSW 04:03:54 19° SSE 04:09:40 10° ESE visible
30 Sep - 06:10:10 10° SW 06:18:47 57° SSE 06:23:47 10° ENE daylight
30 Sep - 08:26:59 10° W 08:30:09 16° NW 08:32:47 10° N daylight
30 Sep - 15:12:56 10° NNE 15:15:50 12° NE 15:19:11 10° ENE daylight
30 Sep - 17:19:19 10° NW 17:29:22 53° NE 17:46:04 10° ESE daylight
30 Sep - 19:31:20 10° WNW 19:44:57 64° SSW 20:04:40 10° SE visible
30 Sep - 21:49:14 10° WSW 22:04:02 30° SSW 22:19:59 10° SSE visible
01 Oct - 00:15:52 10° SW 00:26:06 16° S 00:35:07 10° SSE visible
01 Oct - 02:39:03 10° SSW 02:47:23 16° S 02:53:49 10° SE visible
01 Oct - 04:54:28 10° SW 05:04:16 35° SSE 05:10:12 10° E visible
01 Oct - 07:10:01 10° WSW 07:17:05 48° NW 07:21:28 10° NE daylight
01 Oct - 16:07:08 10° NNW 16:14:42 30° NE 16:26:27 10° E daylight
01 Oct - 18:17:07 10° NW 18:28:36 89° SW 18:47:34 10° SE visible
01 Oct - 20:31:46 10° W 20:46:02 41° SSW 21:04:10 10° SE visible
01 Oct - 22:54:14 10° WSW 23:07:02 20° SSW 23:19:24 10° SSE visible
02 Oct - 01:20:38 10° SSW 01:29:42 15° S 01:37:12 10° SE visible
02 Oct - 03:38:22 10° SSW 03:48:49 25° SSE 03:55:43 10° ESE visible
02 Oct - 05:53:45 10° SW 06:03:32 77° SE 06:08:58 10° ENE daylight
02 Oct - 08:12:23 10° WNW 08:14:49 13° NW 08:16:53 10° NNW daylight
02 Oct - 14:56:57 10° NNE 15:00:23 13° NE 15:04:32 10° ENE daylight
02 Oct - 17:03:56 10° NW 17:13:17 60° NE 17:29:33 10° ESE daylight
02 Oct - 19:16:09 10° WNW 19:28:48 56° SSW 19:47:44 10° SE visible
02 Oct - 21:34:27 10° WSW 21:48:13 27° SSW 22:03:31 10° SSE visible
03 Oct - 00:00:20 10° SW 00:10:56 16° S 00:20:21 10° SSE visible
03 Oct - 02:21:35 10° SSW 02:32:17 20° SSE 02:40:08 10° ESE visible
03 Oct - 04:37:31 10° SW 04:49:04 45° SSE 04:55:40 10° E visible
03 Oct - 06:54:15 10° WSW 07:01:40 38° NW 07:06:17 10° NNE daylight
03 Oct - 15:51:41 10° NNW 15:58:53 33° NE 16:10:28 10° E daylight
03 Oct - 18:01:53 10° WNW 18:12:31 79° SW 18:30:40 10° SE visible
03 Oct - 20:16:53 10° W 20:30:05 35° SSW 20:47:18 10° SE visible
03 Oct - 22:39:28 10° SW 22:51:38 19° S 23:03:38 10° SSE visible
04 Oct - 01:03:44 10° SSW 01:14:35 18° S 01:23:21 10° SE visible
04 Oct - 03:21:05 10° SW 03:33:36 32° SSE 03:41:27 10° E visible
04 Oct - 05:37:20 10° SW 05:48:09 84° NW 05:54:03 10° NE daylight
04 Oct - 07:58:27 10° NW 07:59:26 10° NW 08:00:22 10° NNW daylight
04 Oct - 14:41:08 10° N 14:44:53 14° NE 14:49:38 10° ENE daylight
04 Oct - 16:48:39 10° NW 16:57:19 69° NE 17:12:56 10° ESE daylight
04 Oct - 19:01:09 10° W 19:12:50 48° SSW 19:30:42 10° SE visible
04 Oct - 21:19:50 10° WSW 21:32:35 24° SSW 21:47:00 10° SSE visible
04 Oct - 23:44:34 10° SW 23:55:45 17° S 00:05:46 10° SE visible
05 Oct - 02:04:15 10° SSW 02:17:03 25° SSE 02:26:06 10° ESE visible
05 Oct - 04:20:36 10° SW 04:33:43 58° SSE 04:40:57 10° ENE visible
05 Oct - 06:38:32 10° WSW 06:46:10 31° NW 06:51:01 10° NNE daylight
05 Oct - 15:36:19 10° NNW 15:43:05 38° NE 15:54:24 10° ESE daylight
05 Oct - 17:46:48 10° WNW 17:56:36 68° SSW 18:13:41 10° SE visible
05 Oct - 20:02:11 10° WSW 20:14:19 30° SSW 20:30:21 10° SSE visible
05 Oct - 22:24:40 10° SW 22:36:18 18° S 22:48:00 10° SSE visible
